Location: Theydon Bois
(51.6750°N, 0.1050°E)
Time: 12:39:20
(UTC+00:00)

Envisat - Pass Details

Date: 19 December 2019
Orbit: 764 x 766 km, 98.1° (Epoch: 18 January)

Event Time Altitude Azimuth Distance (km) Brightness Sun altitude
Rises 18:43:14 0° 195° (SSW) 3,222 6.5 -25.3°
Reaches altitude 10° 18:45:49 10° 207° (SSW) 2,301 5.8 -25.6°
Maximum altitude 18:50:13 29° 267° (W) 1,383 4.9 -26.3°
Drops below altitude 10° 18:54:38 10° 327° (NNW) 2,315 5.8 -27.0°
Sets 18:57:15 0° 339° (NNW) 3,247 6.5 -27.4°
